Location: Recife
(8.0585°S, 34.8848°W)
Time: 11:46:39
(UTC-03:00)

Injun/Solrad 3 - All Passes

Search period start: 14 April 2026 00:00
Search period end: 24 April 2026 00:00
Orbit: 869 x 987 km, 66.8° (Epoch: 14 April)

Date Brightness Start Highest point End Pass type
(mag) Time Alt. Az. Time Alt. Az. Time Alt. Az.
14 Apr - 07:51:16 10° NNE 07:56:50 31° ENE 08:02:19 10° SE daylight
14 Apr - 09:38:00 10° WNW 09:43:04 25° WSW 09:48:07 10° SSW daylight
14 Apr - 19:00:32 10° SSE 19:04:29 19° ESE 19:08:24 10° ENE visible
14 Apr - 20:45:34 10° SW 20:50:43 33° WNW 20:55:55 10° N night (unlit)
15 Apr - 08:01:32 10° N 08:07:46 54° ENE 08:13:56 10° SSE daylight
15 Apr - 09:51:05 10° W 09:54:10 14° WSW 09:57:15 10° SW daylight
15 Apr - 19:10:20 10° S 19:15:32 33° ESE 19:20:42 10° NE visible
15 Apr - 20:57:46 10° WSW 21:01:39 18° WNW 21:05:33 10° NNW night (unlit)
16 Apr - 08:12:18 10° NNW 08:18:44 88° WSW 08:25:06 10° SSE daylight
16 Apr - 19:20:46 10° S 19:26:31 61° ESE 19:32:15 10° NNE visible
17 Apr - 06:40:19 10° NE 06:43:35 14° ENE 06:46:49 10° ESE daylight
17 Apr - 08:23:32 10° NW 08:29:44 51° WSW 08:35:51 10° S daylight
17 Apr - 19:31:40 10° SSW 19:37:29 75° WNW 19:43:18 10° NNE visible
18 Apr - 06:49:21 10° NNE 06:54:31 26° ENE 06:59:39 10° SE daylight
18 Apr - 08:35:18 10° NW 08:40:45 29° WSW 08:46:10 10° S daylight
18 Apr - 17:58:52 10° SSE 18:02:07 15° ESE 18:05:22 10° E visible
18 Apr - 19:43:01 10° SW 19:48:25 41° WNW 19:53:51 10° N visible
19 Apr - 06:59:24 10° N 07:05:29 45° ENE 07:11:29 10° SE daylight
19 Apr - 08:47:53 10° WNW 08:51:49 17° WSW 08:55:44 10° SSW daylight
19 Apr - 18:08:18 10° S 18:13:11 28° ESE 18:18:04 10° NE visible
19 Apr - 19:54:55 10° WSW 19:59:21 23° WNW 20:03:48 10° NNW visible
20 Apr - 07:10:02 10° NNW 07:16:26 79° ENE 07:22:46 10° SSE daylight
20 Apr - 18:18:35 10° S 18:24:11 50° ESE 18:29:49 10° NE visible
20 Apr - 20:08:16 10° W 20:10:16 12° WNW 20:12:17 10° NW visible
21 Apr - 05:39:20 10° NE 05:41:17 11° ENE 05:43:13 10° E daylight
21 Apr - 07:21:06 10° NNW 07:27:25 61° WSW 07:33:39 10° S daylight
21 Apr - 18:29:20 10° SSW 18:35:09 90° ESE 18:41:01 10° NNE visible
22 Apr - 05:47:31 10° NNE 05:52:14 22° ENE 05:56:54 10° ESE daylight
22 Apr - 07:32:40 10° NW 07:38:25 35° WSW 07:44:07 10° S daylight
22 Apr - 16:57:31 10° SE 16:59:45 12° ESE 17:01:59 10° E daylight
22 Apr - 18:40:30 10° SW 18:46:06 50° WNW 18:51:44 10° N visible
23 Apr - 05:57:20 10° N 06:03:10 37° ENE 06:08:57 10° SE daylight
23 Apr - 07:44:55 10° WNW 07:49:28 20° WSW 07:53:59 10° SSW daylight
23 Apr - 17:06:21 10° SSE 17:10:50 23° ESE 17:15:19 10° ENE daylight
23 Apr - 18:52:12 10° SW 18:57:01 27° WNW 19:01:55 10° NNW visible
